Regional Weather Roundup
Issued by NWS

Home | Current Version | Previous Version | Graphics & Text | Print | Product List | Glossary On
Versions: 1 2 3 4 5 6 7 8 9 10 11 12 13 14 15 16 17 18 19 20 21 22 23 24 25 26 27 28 29 30 31 32 33 34 35 36 37 38 39 40 41 42 43 44 45 46 47 48 49 50
000
ASUS44 KMEG 192000
RWRTN
TENNESSEE HOURLY STATE WEATHER ROUNDUP
NATIONAL WEATHER SERVICE MEMPHIS TN
200 PM CST SUN FEB 19 2017

TNZ002-004-019-021-049-052-054-088>092-192100-
WEST TENNESSEE

CITY           SKY/WX    TMP DP  RH WIND       PRES   REMARKS
MEMPHIS INTL   MOSUNNY   75  53  46 CALM      30.06F
NWS MEMPHIS      N/A     75 N/A N/A MISG        N/A
JACKSON        SUNNY     72  54  53 NE6       30.08F
UNION CITY     SUNNY     68  52  56 CALM      30.07F
PARIS          SUNNY     66  54  63 CALM      30.09F
$$

TNZ008-025-027-028-033-062-065-066-192100-
NORTH MIDDLE TENNESSEE

CITY           SKY/WX    TMP DP  RH WIND       PRES   REMARKS
NASHVILLE      MOSUNNY   67  50  54 E3        30.11F
CLARKSVILLE    MOSUNNY   70  52  52 N3        30.09F
SMYRNA         SUNNY     66  52  60 CALM      30.12F
CROSSVILLE     SUNNY     62  44  51 W5        30.11F
$$

TNZ061-075-076-078-094-096-097-192100-
SOUTH MIDDLE TENNESSEE

CITY           SKY/WX    TMP DP  RH WIND       PRES   REMARKS
TULLAHOMA      MOSUNNY   66  46  48 N3        30.12S
WINCHESTER     SUNNY     64  48  55 N6        30.12R
MCMINNVILLE    SUNNY     64  50  59 CALM      30.12R
COLUMBIA       SUNNY     68  57  68 E6        30.09F
SHELBYVILLE    SUNNY     70  54  56 VRB3      30.12S
$$

TNZ017-018-042-046-047-192100-
NORTHEAST TENNESSEE

CITY           SKY/WX    TMP DP  RH WIND       PRES   REMARKS
TRI CITIES     MOSUNNY   59  44  57 SW6       30.11F
$$

TNZ012-013-036-069-073-074-192100-
CENTRAL EAST TENNESSEE

CITY           SKY/WX    TMP DP  RH WIND       PRES   REMARKS
KNOXVILLE      MOSUNNY   63  46  54 NE8       30.10F
OAK RIDGE      SUNNY     64  45  49 E5        30.11F
GATLINBURG     SUNNY     61  45  55 N6        30.10F
$$

TNZ083-085-099-192100-
SOUTHEAST TENNESSEE

CITY           SKY/WX    TMP DP  RH WIND       PRES   REMARKS
CHATTANOOGA    MOSUNNY   67  47  48 N12       30.09F
$$

SKY/WX REPORTED AS FAIR MEANS FEW OR NO CLOUDS BELOW
12 THOUSAND FEET.




USA.gov is the U.S. government's official web portal to all federal, state and local government web resources and services.